FW5313 Weather Reports


Display with metric or nautical units.
time (UTC)temp
F
wind
direction
speed
MPH
gust
MPH
rain 1hr
in
rain 24hr
in
rain mn
in
humidity
%
barometer
mb
20260507214553 49 219 3.0 6.0 0.00 0.05 0.00 45 1005.1
20260507214045 50 257 3.0 6.0 0.00 0.05 0.00 45 1005.1
20260507213545 50 254 3.0 7.0 0.00 0.05 0.00 47 1005.0
20260507213052 50 276 2.0 7.0 0.00 0.05 0.00 45 1005.1
20260507212546 50 268 3.0 8.0 0.00 0.05 0.00 42 1005.0
20260507212045 50 316 3.0 8.0 0.00 0.05 0.00 44 1004.9
20260507211552 50 15 2.0 7.0 0.00 0.05 0.00 41 1004.9
20260507211044 50 272 2.0 6.0 0.00 0.05 0.00 44 1004.9
20260507210546 50 335 3.0 6.0 0.00 0.05 0.00 45 1004.8
20260507210113 51 302 2.0 10.0 0.00 0.05 0.00 43 1004.7
20260507205542 51 178 3.0 10.0 0.00 0.07 0.00 44 1004.8
20260507205048 52 178 4.0 10.0 0.00 0.07 0.00 41 1004.7
20260507204557 51 250 3.0 7.0 0.00 0.07 0.00 43 1004.4
20260507204044 51 267 3.0 8.0 0.00 0.07 0.00 43 1004.6
20260507203546 52 267 4.0 9.0 0.00 0.07 0.00 43 1004.5
20260507203051 53 283 3.0 9.0 0.00 0.07 0.00 41 1004.4
20260507202545 53 278 2.0 7.0 0.00 0.07 0.00 43 1004.4
20260507202045 53 251 3.0 7.0 0.00 0.07 0.00 47 1004.4
20260507201551 52 264 3.0 8.0 0.00 0.07 0.00 42 1004.4
20260507201045 53 285 3.0 8.0 0.00 0.07 0.00 45 1004.5
20260507200546 53 293 3.0 7.0 0.00 0.07 0.00 43 1004.6
20260507200104 53 235 3.0 8.0 0.00 0.07 0.00 44 1004.5
20260507195551 52 285 4.0 8.0 0.00 0.10 0.00 43 1004.4
20260507195045 53 278 3.0 8.0 0.00 0.10 0.00 40 1004.4
20260507194556 52 178 2.0 9.0 0.00 0.10 0.00 42 1004.5
20260507194043 52 178 4.0 9.0 0.00 0.10 0.00 45 1004.6
20260507193546 53 159 3.0 6.0 0.00 0.10 0.00 44 1004.7
20260507193110 51 178 3.0 10.0 0.00 0.10 0.00 42 1004.7
20260507192545 52 178 3.0 10.0 0.00 0.10 0.00 40 1004.8
20260507192049 54 172 4.0 10.0 0.00 0.10 0.00 45 1004.8
20260507191556 54 283 2.0 8.0 0.00 0.10 0.00 44 1004.8
20260507191046 53 252 4.0 7.0 0.00 0.10 0.00 43 1004.8
20260507190547 55 193 3.0 7.0 0.00 0.10 0.00 41 1004.7
20260507190049 54 193 3.0 11.0 0.00 0.10 0.00 43 1004.7
20260507185545 53 204 3.0 11.0 0.00 0.12 0.00 45 1004.8
20260507185045 53 263 5.0 10.0 0.00 0.12 0.00 43 1004.8
20260507184548 52 274 3.0 10.0 0.00 0.12 0.00 48 1004.8
20260507184043 52 225 4.0 10.0 0.00 0.12 0.00 44 1005.0
20260507183544 52 271 4.0 10.0 0.00 0.12 0.00 48 1004.9
20260507183059 52 203 4.0 10.0 0.00 0.12 0.00 43 1004.9
20260507182545 52 285 5.0 10.0 0.00 0.12 0.00 46 1005.0
20260507182044 52 193 5.0 10.0 0.00 0.12 0.00 49 1004.8
20260507181548 54 257 4.0 9.0 0.00 0.12 0.00 46 1004.8
20260507181042 54 193 3.0 11.0 0.00 0.12 0.00 41 1004.9
20260507180545 52 270 4.0 11.0 0.00 0.12 0.00 47 1004.9
20260507180054 51 264 3.0 9.0 0.00 0.12 0.00 47 1004.8
20260507175544 52 269 5.0 9.0 0.00 0.27 0.00 49 1004.9
20260507175046 52 219 4.0 9.0 0.00 0.27 0.00 46 1004.9
20260507174600 51 256 3.0 11.0 0.00 0.27 0.00 47 1005.0
20260507174042 51 266 4.0 11.0 0.00 0.27 0.00 48 1005.1
20260507173545 51 259 4.0 11.0 0.00 0.27 0.00 46 1005.1
20260507173128 51 271 5.0 9.0 0.00 0.27 0.00 47 1005.0
20260507172544 51 96 5.0 12.0 0.00 0.27 0.00 49 1005.1
20260507172044 51 178 4.0 13.0 0.00 0.27 0.00 46 1005.1
20260507171551 52 178 3.0 13.0 0.00 0.27 0.00 48 1005.2
20260507171050 52 178 5.0 11.0 0.00 0.27 0.00 46 1005.4
20260507170543 53 178 2.0 11.0 0.00 0.27 0.00 52 1005.4
20260507170054 52 178 3.0 11.0 0.00 0.27 0.00 53 1005.2
20260507165542 52 178 2.0 9.0 0.00 0.36 0.00 53 1005.6
20260507165045 52 193 3.0 6.0 0.00 0.36 0.00 50 1005.4
20260507164557 51 248 2.0 7.0 0.00 0.36 0.00 50 1005.6
20260507164045 51 178 3.0 7.0 0.00 0.36 0.00 52 1005.6
20260507163542 51 178 3.0 6.0 0.00 0.36 0.00 57 1005.7
20260507163051 50 178 2.0 8.0 0.00 0.36 0.00 57 1005.6
20260507162545 50 176 2.0 9.0 0.00 0.36 0.00 59 1005.7
20260507162044 49 178 2.0 9.0 0.00 0.36 0.00 59 1005.8
20260507161606 49 178 2.0 9.0 0.00 0.36 0.00 53 1005.9
20260507161044 49 178 3.0 7.0 0.00 0.36 0.00 55 1005.9
20260507160542 49 130 3.0 7.0 0.00 0.36 0.00 59 1006.0
20260507160104 48 178 2.0 9.0 0.00 0.36 0.00 62 1006.0
20260507155545 47 178 3.0 9.0 0.00 0.45 0.00 60 1006.1
20260507155045 47 178 1.0 6.0 0.00 0.45 0.00 63 1006.1
20260507154551 47 178 2.0 8.0 0.00 0.45 0.00 59 1006.3
20260507154044 47 271 4.0 8.0 0.00 0.45 0.00 60 1006.5
20260507153545 47 282 2.0 4.0 0.00 0.45 0.00 65 1006.5
20260507153048 46 197 1.0 5.0 0.00 0.45 0.00 63 1006.3
20260507152548 45 289 1.0 5.0 0.00 0.45 0.00 66 1006.4
20260507152044 45 289 2.0 5.0 0.00 0.45 0.00 67 1006.6
20260507151550 46 242 1.0 4.0 0.00 0.45 0.00 65 1006.6
20260507151045 46 286 1.0 7.0 0.00 0.45 0.00 65 1006.4
20260507150550 47 269 3.0 7.0 0.00 0.45 0.00 68 1006.6
20260507150057 47 268 3.0 6.0 0.00 0.45 0.00 69 1006.5
20260507145545 46 309 2.0 6.0 0.00 0.50 0.00 67 1006.7
20260507145045 45 270 2.0 8.0 0.00 0.50 0.00 67 1006.4
20260507144559 46 256 3.0 8.0 0.00 0.50 0.00 63 1006.4
20260507144042 45 265 2.0 6.0 0.00 0.50 0.00 72 1006.4
20260507143544 45 217 1.0 5.0 0.00 0.50 0.00 69 1006.5
20260507143059 45 248 1.0 5.0 0.00 0.50 0.00 70 1006.4
20260507142544 45 248 2.0 5.0 0.00 0.50 0.00 69 1006.4
20260507142049 45 236 2.0 4.0 0.00 0.50 0.00 71 1006.4
20260507141602 44 266 2.0 8.0 0.00 0.50 0.00 70 1006.5
20260507141045 44 230 2.0 8.0 0.00 0.50 0.00 69 1006.4
20260507140544 44 197 3.0 7.0 0.00 0.50 0.00 72 1006.6
20260507140059 45 262 1.0 5.0 0.00 0.50 0.00 75 1006.5
20260507135548 44 256 2.0 8.0 0.00 0.57 0.00 70 1006.6
20260507135045 44 277 2.0 8.0 0.00 0.57 0.00 75 1006.5
20260507134606 44 257 3.0 6.0 0.00 0.57 0.00 72 1006.5
20260507134044 44 300 1.0 5.0 0.00 0.57 0.00 77 1006.5
20260507133546 44 276 2.0 5.0 0.00 0.57 0.00 75 1006.6
20260507133054 44 245 2.0 5.0 0.00 0.57 0.00 82 1006.5
20260507132544 43 256 1.0 3.0 0.00 0.57 0.00 85 1006.6
20260507132044 43 279 1.0 3.0 0.00 0.57 0.00 86 1006.6
20260507131557 43 250 1.0 3.0 0.00 0.57 0.00 87 1006.6
20260507131044 43 261 1.0 3.0 0.00 0.57 0.00 88 1006.5
20260507130544 43 281 1.0 3.0 0.00 0.57 0.00 84 1006.4
20260507130052 43 214 0.0 2.0 0.00 0.57 0.00 85 1006.5
20260507125542 42 278 0.0 2.0 0.00 0.62 0.00 87 1006.3
20260507125045 42 0 1.0 2.0 0.00 0.62 0.00 85 1006.4
20260507124554 42 0 1.0 3.0 0.00 0.62 0.00 86 1006.4
20260507124044 42 251 1.0 3.0 0.00 0.62 0.00 88 1006.5
20260507123545 41 0 1.0 3.0 0.00 0.62 0.00 88 1006.4
20260507123054 41 243 1.0 2.0 0.00 0.62 0.00 87 1006.4
20260507122541 41 256 0.0 1.0 0.00 0.62 0.00 88 1006.4
20260507122047 41 193 0.0 1.0 0.00 0.62 0.00 85 1006.3
20260507121550 42 202 0.0 1.0 0.00 0.62 0.00 84 1006.2
20260507121042 42 202 0.0 1.0 0.00 0.62 0.00 83 1006.3
20260507120541 42 193 0.0 1.0 0.00 0.62 0.00 85 1006.2
20260507120050 42 246 0.0 2.0 0.00 0.62 0.00 83 1006.2
20260507115545 42 249 0.0 4.0 0.00 0.63 0.00 87 1006.1
20260507115045 41 255 1.0 4.0 0.00 0.63 0.00 86 1006.1
20260507114600 41 261 2.0 4.0 0.00 0.63 0.00 85 1006.2
20260507114047 41 282 1.0 1.0 0.00 0.63 0.00 87 1006.0
20260507113541 41 259 1.0 1.0 0.00 0.63 0.00 88 1006.1
20260507113052 41 0 0.0 3.0 0.00 0.63 0.00 88 1005.9
20260507112541 40 0 0.0 3.0 0.00 0.63 0.00 92 1005.9
20260507112041 40 321 0.0 0.0 0.00 0.63 0.00 96 1005.9
20260507111558 40 0 0.0 0.0 0.00 0.63 0.00 97 1006.2
20260507111041 40 0 0.0 0.0 0.00 0.63 0.00 97 1006.2
20260507110542 39 0 0.0 0.0 0.00 0.63 0.00 96 1006.1
20260507110053 39 0 0.0 2.0 0.00 0.63 0.00 96 1006.0
20260507105545 39 0 0.0 2.0 0.00 0.63 0.00 95 1006.1
20260507105045 39 76 0.0 5.0 0.00 0.63 0.00 95 1006.1
20260507104551 39 51 0.0 5.0 0.00 0.63 0.00 96 1006.1
20260507104044 39 311 1.0 5.0 0.00 0.63 0.00 97 1006.2
20260507103545 39 0 0.0 1.0 0.00 0.63 0.00 97 1006.1
20260507103048 39 330 0.0 1.0 0.00 0.63 0.00 98 1006.0
20260507102544 39 0 0.0 1.0 0.00 0.63 0.00 97 1006.2
20260507102047 39 0 0.0 1.0 0.00 0.63 0.00 98 1006.0
20260507101601 39 0 0.0 1.0 0.00 0.63 0.00 97 1005.9
20260507101045 39 193 0.0 0.0 0.00 0.63 0.00 97 1005.8
20260507100545 39 0 0.0 0.0 0.00 0.63 0.00 97 1005.9
20260507100053 39 194 0.0 0.0 0.00 0.63 0.00 97 1005.8
20260507095544 39 0 0.0 0.0 0.00 0.63 0.00 97 1005.8
20260507095041 39 0 0.0 0.0 0.00 0.63 0.00 97 1005.7
20260507094552 39 194 0.0 0.0 0.00 0.63 0.00 97 1005.8
20260507094046 39 0 0.0 0.0 0.00 0.63 0.00 97 1005.9
20260507093542 39 0 0.0 1.0 0.00 0.63 0.00 98 1005.7
20260507093056 39 0 0.0 1.0 0.00 0.63 0.00 98 1005.8
20260507092545 39 347 0.0 1.0 0.00 0.63 0.00 98 1006.0
20260507092044 39 0 0.0 1.0 0.00 0.63 0.00 98 1006.0
20260507091556 39 0 0.0 1.0 0.00 0.63 0.00 98 1006.1
20260507091045 39 0 0.0 1.0 0.00 0.63 0.00 98 1005.9
20260507090545 39 0 0.0 1.0 0.00 0.63 0.00 98 1005.9
20260507090057 38 0 0.0 2.0 0.00 0.63 0.00 98 1006.2
20260507085545 38 0 0.0 2.0 0.00 0.63 0.00 98 1006.3
20260507085045 38 355 0.0 1.0 0.00 0.63 0.00 98 1006.2
20260507084549 38 0 0.0 1.0 0.00 0.63 0.00 98 1006.0
20260507084045 38 0 0.0 1.0 0.00 0.63 0.00 98 1005.9
20260507083541 38 0 0.0 1.0 0.00 0.63 0.00 98 1006.0
20260507083053 38 0 0.0 1.0 0.00 0.63 0.00 98 1006.1
20260507082542 38 67 0.0 2.0 0.00 0.63 0.00 98 1006.1
20260507082041 38 66 0.0 2.0 0.00 0.63 0.00 98 1006.2
20260507081554 38 66 0.0 2.0 0.00 0.63 0.00 98 1006.3
20260507081041 38 0 0.0 2.0 0.00 0.63 0.00 98 1006.4
20260507080545 38 0 0.0 2.0 0.00 0.63 0.00 98 1006.5
20260507080050 38 0 0.0 2.0 0.00 0.63 0.00 98 1006.5
20260507075542 38 0 0.0 1.0 0.00 0.63 0.00 98 1006.4
20260507075043 38 0 0.0 1.0 0.00 0.63 0.00 98 1006.3
20260507074555 38 63 0.0 1.0 0.00 0.63 0.00 98 1006.1
20260507074044 38 63 0.0 1.0 0.00 0.63 0.00 98 1006.0
20260507073545 38 0 0.0 1.0 0.00 0.63 0.00 98 1006.0
20260507073054 38 63 0.0 1.0 0.00 0.63 0.00 98 1005.9
20260507072546 38 0 0.0 1.0 0.00 0.63 0.00 98 1006.0
20260507072046 38 0 0.0 1.0 0.00 0.63 0.00 98 1005.9
20260507071553 38 0 0.0 1.0 0.00 0.63 0.00 98 1005.9
20260507071047 38 0 0.0 1.0 0.00 0.63 0.00 97 1005.8
20260507070547 38 63 0.0 1.0 0.00 0.63 0.00 97 1005.8
20260507070051 38 63 0.0 1.0 0.00 0.63 0.00 97 1005.7
20260507065547 38 63 1.0 1.0 0.00 0.63 0.00 97 1005.7
20260507065045 38 63 0.0 1.0 0.00 0.63 0.00 97 1005.7
20260507064605 38 63 0.0 1.0 0.00 0.63 0.00 98 1005.9
20260507064048 38 0 0.0 1.0 0.00 0.63 0.00 97 1006.0
20260507063545 38 63 0.0 1.0 0.00 0.63 0.00 98 1005.8
20260507063054 38 63 0.0 1.0 0.00 0.63 0.00 97 1005.8
20260507062546 38 63 0.0 1.0 0.00 0.63 0.00 97 1005.8
20260507062046 38 63 0.0 1.0 0.00 0.63 0.00 97 1005.9
20260507061549 38 63 0.0 1.0 0.00 0.63 0.00 98 1005.9
20260507061045 38 63 0.0 1.0 0.00 0.63 0.00 97 1005.9
20260507060547 38 63 0.0 1.0 0.00 0.63 0.00 97 1005.8
20260507060053 38 63 0.0 1.0 0.00 0.63 0.00 98 1006.1
20260507055546 38 63 0.0 1.0 0.00 0.69 0.00 97 1006.2
20260507055046 39 0 0.0 1.0 0.00 0.69 0.00 98 1006.1
20260507054555 38 0 0.0 1.0 0.00 0.69 0.00 97 1006.1
20260507054045 39 0 0.0 1.0 0.00 0.69 0.00 97 1006.0
20260507053548 39 63 0.0 1.0 0.00 0.69 0.00 98 1006.6
20260507053048 39 0 0.0 1.0 0.00 0.69 0.00 98 1006.4
20260507052550 39 63 0.0 1.0 0.00 0.69 0.00 98 1006.4
20260507052048 38 63 0.0 1.0 0.00 0.69 0.00 97 1006.2
20260507051551 39 0 0.0 1.0 0.00 0.69 0.00 97 1006.5
20260507051046 39 0 0.0 2.0 0.00 0.69 0.00 98 1006.6
20260507050546 38 0 0.0 2.0 0.00 0.69 0.00 97 1006.4
20260507050050 38 0 0.0 2.0 0.00 0.69 0.00 98 1006.5
20260507045549 38 0 0.0 0.0 0.00 0.73 0.00 97 1006.4
20260507045044 38 0 0.0 0.0 0.00 0.73 0.00 97 1006.4
20260507044551 38 0 0.0 1.0 0.00 0.73 0.00 97 1006.4
20260507044046 38 0 0.0 2.0 0.00 0.73 0.00 97 1006.5
20260507043547 38 0 0.0 2.0 0.00 0.73 0.00 97 1006.4
20260507043052 38 0 0.0 1.0 0.00 0.73 0.00 97 1006.5
20260507042544 38 0 0.0 0.0 0.00 0.73 0.00 97 1006.6
20260507042045 39 0 0.0 0.0 0.00 0.73 0.00 97 1006.5
20260507041557 39 0 0.0 1.0 0.00 0.73 0.00 97 1006.5
20260507041047 39 0 0.0 1.0 0.00 0.73 0.00 97 1006.5
20260507040547 39 36 0.0 1.0 0.00 0.73 0.00 97 1006.6
20260507040056 39 39 0.0 1.0 0.00 0.73 0.00 97 1006.6
20260507035547 39 0 0.0 1.0 0.00 0.74 0.73 97 1006.5
20260507035047 39 0 0.0 1.0 0.00 0.74 0.73 97 1006.6
20260507034555 39 0 0.0 1.0 0.00 0.74 0.73 97 1006.4
20260507034044 40 39 0.0 0.0 0.00 0.74 0.73 97 1006.2
20260507033547 40 0 0.0 0.0 0.00 0.74 0.73 97 1006.3
20260507033050 40 0 0.0 0.0 0.00 0.74 0.73 97 1006.4
20260507032548 40 0 0.0 0.0 0.00 0.74 0.73 97 1006.6
20260507032044 40 0 0.0 0.0 0.00 0.74 0.73 97 1006.6
20260507031552 40 0 0.0 0.0 0.00 0.74 0.73 97 1006.4
20260507031046 40 0 0.0 0.0 0.00 0.74 0.73 97 1006.6
20260507030547 40 0 0.0 0.0 0.00 0.74 0.73 97 1006.6
20260507025545 40 0 0.0 0.0 0.00 0.74 0.73 97 1006.5
20260507025046 40 0 0.0 0.0 0.00 0.74 0.73 97 1006.6
20260507024557 40 0 0.0 0.0 0.00 0.74 0.73 97 1006.9
20260507024046 40 0 0.0 0.0 0.00 0.74 0.73 97 1006.9
20260507023545 40 304 0.0 1.0 0.00 0.74 0.73 97 1006.9
20260507023110 40 304 0.0 1.0 0.00 0.74 0.73 97 1007.1
20260507022548 40 304 0.0 2.0 0.00 0.74 0.73 97 1007.0
20260507022047 40 0 0.0 2.0 0.01 0.74 0.73 97 1007.0
20260507021557 40 285 0.0 3.0 0.01 0.74 0.73 97 1006.9
20260507021049 41 0 0.0 3.0 0.01 0.74 0.73 97 1006.7
20260507020547 41 328 1.0 3.0 0.01 0.74 0.73 97 1006.8
20260507020052 41 304 1.0 3.0 0.01 0.74 0.73 97 1006.8
20260507015546 41 291 0.0 1.0 0.01 0.74 0.73 97 1006.7
20260507015044 41 288 0.0 2.0 0.01 0.74 0.73 97 1006.4
20260507014606 41 0 0.0 2.0 0.01 0.74 0.73 97 1006.6
20260507014046 41 269 0.0 2.0 0.02 0.74 0.73 97 1006.8
20260507013543 41 299 0.0 2.0 0.02 0.74 0.73 97 1006.9
20260507013110 41 0 0.0 2.0 0.02 0.74 0.73 97 1007.0
20260507012543 41 285 0.0 2.0 0.02 0.74 0.73 97 1006.9
20260507012045 41 283 0.0 2.0 0.01 0.73 0.72 97 1006.8
20260507011552 41 294 0.0 1.0 0.01 0.73 0.72 97 1006.9
20260507011047 41 293 0.0 2.0 0.01 0.73 0.72 97 1007.0
20260507010545 41 334 0.0 3.0 0.01 0.73 0.72 97 1006.7
20260507010058 41 284 0.0 3.0 0.01 0.73 0.72 97 1006.9
20260507005547 41 313 1.0 3.0 0.01 0.73 0.72 97 1006.8
20260507005046 41 281 1.0 3.0 0.01 0.73 0.72 97 1006.7
20260507004552 41 293 1.0 2.0 0.01 0.73 0.72 97 1006.4
20260507004044 41 340 0.0 1.0 0.00 0.72 0.71 97 1006.2
20260507003547 41 0 0.0 1.0 0.01 0.72 0.71 97 1006.3
20260507003051 41 0 0.0 1.0 0.01 0.72 0.71 97 1006.3
20260507002544 42 0 0.0 1.0 0.01 0.72 0.71 97 1006.0
20260507002044 41 328 0.0 2.0 0.01 0.72 0.71 97 1005.9
20260507001612 42 314 0.0 2.0 0.02 0.72 0.71 97 1005.9
20260507001049 42 356 0.0 2.0 0.02 0.72 0.71 97 1005.9
20260507000546 42 302 0.0 2.0 0.02 0.72 0.71 97 1005.8
20260507000051 42 274 0.0 1.0 0.03 0.72 0.71 97 1005.8
20260506235544 42 0 0.0 2.0 0.03 0.72 0.71 97 1005.7
20260506235045 42 0 0.0 2.0 0.03 0.72 0.71 97 1005.4
20260506234548 42 252 0.0 2.0 0.03 0.72 0.71 97 1005.2
20260506234048 42 2 1.0 2.0 0.03 0.72 0.71 97 1004.9
20260506233545 42 286 1.0 3.0 0.02 0.71 0.70 97 1005.0
20260506233059 42 272 1.0 3.0 0.02 0.71 0.70 97 1005.2
20260506232544 42 0 1.0 2.0 0.02 0.71 0.70 97 1005.1
20260506232045 42 269 1.0 2.0 0.02 0.71 0.70 97 1005.0
20260506231554 42 261 1.0 2.0 0.01 0.70 0.69 97 1004.9
20260506231044 42 299 1.0 2.0 0.01 0.70 0.69 96 1004.7
20260506230544 43 275 1.0 3.0 0.01 0.70 0.69 97 1005.1
20260506225546 43 274 1.0 3.0 0.00 0.69 0.68 96 1004.9
20260506225045 43 262 1.0 3.0 0.00 0.69 0.68 96 1004.6
20260506224556 43 276 1.0 3.0 0.00 0.69 0.68 96 1004.6
20260506224045 43 283 1.0 3.0 0.00 0.69 0.68 96 1004.6
20260506223545 44 304 1.0 3.0 0.00 0.69 0.68 96 1004.5
20260506223106 44 281 1.0 3.0 0.00 0.69 0.68 96 1004.5
20260506222548 44 272 1.0 3.0 0.00 0.69 0.68 96 1004.4
20260506222047 44 274 1.0 3.0 0.00 0.69 0.68 96 1004.3
20260506221559 44 208 0.0 2.0 0.00 0.69 0.68 95 1004.2
20260506221043 44 247 0.0 4.0 0.00 0.69 0.68 95 1004.1
20260506220545 44 283 0.0 4.0 0.00 0.69 0.68 95 1004.3
20260506220054 45 304 1.0 4.0 0.00 0.69 0.68 94 1004.3
20260506215546 45 250 1.0 4.0 0.00 0.69 0.68 95 1004.3
20260506215043 45 267 1.0 2.0 0.00 0.69 0.68 95 1004.3